Miscellaneous Local Product
Issued by NWS Hastings, NE

Home | Current Version | Previous Version | Text Only | Print | Product List | Glossary Off
Versions: 1 2 3 4 5 6 7 8 9 10 11 12 13 14 15 16 17 18 19 20 21 22 23 24 25 26 27 28 29 30 31 32 33 34 35 36 37 38 39 40 41 42 43 44 45 46 47 48 49 50

000
AXUS43 KGID 230302
MISGRI

GID CWA HOURLY WEATHER ROUNDUP
NATIONAL WEATHER SERVICE HASTINGS NE
1000 PM CDT THU JUN 22 2017

NOTE: "FAIR" INDICATES FEW OR NO CLOUDS BELOW 12,000 FEET WITH NO
SIGNIFICANT WEATHER AND/OR OBSTRUCTIONS TO VISIBILITY.

...SOUTH CENTRAL NEBRASKA...

CITY           SKY/WX    TMP DP  RH WIND       PRES   REMARKS
GRAND ISLAND   CLEAR     71  63  75 N16       29.81R
HASTINGS       PTCLDY    74  61  63 N22G28    29.81R
KEARNEY        MOCLDY    72  57  60 N20       29.84R
ORD            CLEAR     67  55  65 N8        29.87R
YORK           CLEAR     73  64  73 N18G26    29.76R
AURORA         CLEAR     73  62  66 N20G29    29.78R
LEXINGTON      PTCLDY    72  56  57 N8        29.87R
HOLDREGE       MOCLDY    74  59  59 N15       29.85R
HEBRON         MOCLDY    82  67  60 N13G26    29.70R

...NEBRASKA PANHANDLE...

CITY           SKY/WX    TMP DP  RH WIND       PRES   REMARKS
CHADRON        PTCLDY    65  45  48 NE3       29.99R
ALLIANCE       CLEAR     62  47  57 NE12      29.98R
SCOTTSBLUFF    CLOUDY    72  47  40 NE13      29.97R
SIDNEY         CLOUDY    69  52  54 E10       29.98R

...WESTERN AND NORTH CENTRAL NEBRASKA...

CITY           SKY/WX    TMP DP  RH WIND       PRES   REMARKS
VALENTINE      CLEAR     69  44  40 N6        29.94R
AINSWORTH      CLEAR     62  49  63 NE5       29.94R
ONEILL         CLOUDY    67  53  59 N8        29.90R
BROKEN BOW     CLOUDY    68  53  58 N13       29.90R
IMPERIAL       PTCLDY    71  54  54 NE12      29.90F
NORTH PLATTE   PTCLDY    70  50  49 N9        29.92R
MCCOOK         CLOUDY    74  59  59 N14       29.87R

...EASTERN NEBRASKA...

CITY           SKY/WX    TMP DP  RH WIND       PRES   REMARKS
NORFOLK        PTCLDY    71  62  73 N13       29.82R
SO SIOUX CITY    N/A    N/A N/A N/A MISG      29.78R
TEKAMAH        CLOUDY    74  63  68 N25G33    29.75R
COLUMBUS       CLOUDY    74  64  71 N18G25    29.79R
ALBION         CLEAR     71  61  70 N6        29.84R
OMAHA EPPLEY   MOCLDY    82  68  62 N15       29.69R
OFFUTT AFB     PTCLDY    82  67  60 N13       29.68R
MILLARD        MOCLDY    83  69  61 N5        29.69R
LINCOLN        CLOUDY    80  64  58 N18       29.70R
NEBRASKA CITY  PTCLDY    80  70  71 S3        29.67R
BEATRICE       MOCLDY    82  71  68 CALM      29.67R
FALLS CITY     CLEAR     78  71  79 SE6       29.66R

...NORTHERN KANSAS...

CITY           SKY/WX    TMP DP  RH WIND       PRES   REMARKS
GOODLAND       PTCLDY    75  59  57 NE16      29.88R
HILL CITY      CLOUDY    80  62  54 N18       29.79R
NORTON         CLEAR     75  55  50 N12G18    29.82R
PHILLIPSBURG   CLEAR     81  57  44 N14G20    29.79R
SMITH CENTER   MOCLDY    75  61  60 N15G21    29.75R
HAYS           CLOUDY    84  68  58 N9        29.77R
RUSSELL        CLOUDY    86  64  47 N16       29.70R
CONCORDIA      PTCLDY    85  67  54 N14G20    29.67R
SALINA         CLOUDY    86  65  49 S14       29.63R
TOPEKA         PTCLDY    82  74  76 SE6       29.67S



USA.gov is the U.S. government's official web portal to all federal, state and local government web resources and services.